SL-14 R/B

Satellite information

Favourite Embed

Satellite Type and Status

ROCKET BODYIN ORBIT

Key statistics

Satellite SL-14 R/B at a glance.

Uptime

15052

Days in orbit

Revolutions

≈ 12.4

Per day

Orbit

LEO

Low Earth Orbit

Inclination

82.6

Latest

Satellite identification and parameters

Extended collection of information and parameters for SL-14 R/B.

Object identification

Identified? True

Debris? False

Object name: SL-14 R/B

International designator: 1984-084B

Object number (NORAD): 15172

Object ID (CCSDS): 15172

Country: COMMONWEALTH OF INDEPENDENT STATES (CIS)

Current information (Y/N): Y

RCS size: LARGE

Orbital parameters

Period: 115.886 minutes

Inclination: 82.5941 deg

SMA: 7873.724 km

Apoapsis: 1500.789 km

Periapsis: 1490.39 km

RAAN: 293.8715 deg

Eccentricy: 0.00066032

Argument of periapsis: 172.0163 deg

Mean anomaly: 245.663 deg

Mean motion: 12.42603165 rev/day

Mean motion (dot): -0.00000004 rev/day2

B* drag term: -0.000098867868 1/REarth

Two-line elements (TLE)

Creation date: Oct. 24, 2025, 2:48 a.m.

Reference frame: TEME

Reference center: EARTH

Epoch: Oct. 23, 2025, 11:13 p.m. UTC

TLE line 0: 0 SL-14 R/B

TLE line 1: 1 15172U 84084B 25296.96788759 -.00000004 00000-0 -98868-4 0 9992

TLE line 2: 2 15172 82.5941 293.8715 0006603 172.0163 245.6630 12.42603165869062

Live tracking on map

Real-time ground track for satellite SL-14 R/B.

In-orbit conjunctions

A list of the most updated potential collisions computed for object SL-14 R/B.

Target Orbit TCA Probability of collision Miss distance Type
DELTA 1 DEB SSO 2025-10-13 07:52:10 0.00050641 145.0 (m) DEBRIS
JD 3 LEO 2025-06-23 07:14:48 0.002087368 164.0 (m) PAYLOAD

Associated space launch

A satellite for the GEO-IK geodetic system

SL-14 R/B was lifted into orbit during the mission ‘Tsiklon-3 | Geo-IK 5’, on board a Tsiklon-3 space rocket.

The launch took place on Aug. 8, 1984, 12:08 p.m. from 32/2.

For more information about the launch, click the button.

Launch to space Tsiklon-3 | Geo-IK 5
Tsiklon-3 | Geo-IK 5

Agency: N/A

Status: Launch Successful

Launch date: Aug. 8, 1984, 12:08 p.m. UTC

Rocket: Tsiklon-3

Launch pad: 32/2

Location: Plesetsk Cosmodrome, Russian Federation

...

Latest news about this satellite

There are no fresh news available about this satellite. Check back as we update our databases every day.


Newsletter sign-up

Weekly statistics, charts and insights to help you stay on top of the space industry.